Eglinton, United Kingdom

12:20 PM BST on June 27, 2017 (GMT +0100)
Eglinton

Weather History for EGAE - April, 2014

Change the Weather History Date:

Tuesday, April 15, 2014

  Actual Average Record
Temperature  
Mean Temperature 55 °F -  
Max Temperature 64 °F 51 °F 69 °F (2003)
Min Temperature 46 °F 41 °F 33 °F (2002)
Degree Days  
Heating Degree Days 10    
Growing Degree Days 5 (Base 50)    
Moisture  
Dew Point 42 °F    
Average Humidity 57    
Maximum Humidity 82    
Minimum Humidity 45    
Precipitation  
Precipitation 0.00 in - - ()
Sea Level Pressure  
Sea Level Pressure 30.27 in    
Wind  
Wind Speed 8 mph ()    
Max Wind Speed 16 mph    
Max Gust Speed -    
Visibility 6.2 miles    
Events      
Averages and records for this station are not official NWS values.
T = Trace of Precipitation, MM = Missing Value Source: Averaged Metar Reports

Daily Weather History Graph

Daily Weather History Graph

Search for Another Location

Airport or City:

Trip Planner

Search our weather history database for the weather conditions in past years. The results will help you decide how hot, cold, wet, or windy it might be!

Date:

Astronomy

Apr. 15, 2014 Rise Set
Actual Time 6:25 AM BST 8:32 PM BST
Civil Twilight 5:46 AM BST 9:12 PM BST
Nautical Twilight 4:57 AM BST 10:01 PM BST
Astronomical Twilight 3:59 AM BST 11:00 PM BST
Moon 9:04 PM BST (4/15) 6:25 AM BST (4/15)
Length of Visible Light 15h 25m
Length of Day
14h 07m
Full, 100% of the Moon is Illuminated
Apr 15
Full
Apr 22
Last Quarter
Apr 29
New
May 7
First Quarter
May 14
Full

Hourly Weather History & Observations

Time (BST) Temp. Windchill Dew Point Humidity Pressure Visibility Wind Dir Wind Speed Gust Speed Precip Events Conditions
8:50 AM 46.4 °F - 41.0 °F 81% 30.36 in - Variable 2.3 mph - N/A   Clear
9:20 AM 46.4 °F 45.2 °F 41.0 °F 81% 30.33 in - Variable 3.5 mph - N/A   Clear
9:50 AM 48.2 °F - 41.0 °F 76% 30.33 in - ENE 4.6 mph - N/A   Clear
10:20 AM 48.2 °F - 42.8 °F 82% 30.33 in - North 5.8 mph - N/A   Clear
10:50 AM 51.8 °F - 41.0 °F 67% 30.33 in - NNE 6.9 mph - N/A   Clear
11:20 AM 53.6 °F - 42.8 °F 67% 30.33 in - Variable 3.5 mph - N/A   Clear
11:50 AM 57.2 °F - 41.0 °F 55% 30.33 in - South 9.2 mph - N/A   Clear
12:20 PM 57.2 °F - 41.0 °F 55% 30.30 in - South 11.5 mph - N/A   Clear
12:50 PM 59.0 °F - 42.8 °F 55% 30.30 in 6.2 mi SSW 12.7 mph - N/A   Partly Cloudy
1:20 PM 59.0 °F - 42.8 °F 55% 30.30 in 6.2 mi SSW 12.7 mph - N/A   Partly Cloudy
1:50 PM 60.8 °F - 41.0 °F 48% 30.30 in 6.2 mi SW 12.7 mph - N/A   Partly Cloudy
2:20 PM 60.8 °F - 41.0 °F 48% 30.27 in 6.2 mi SSW 16.1 mph - N/A   Partly Cloudy
2:50 PM 62.6 °F - 41.0 °F 45% 30.27 in 6.2 mi SW 16.1 mph - N/A   Partly Cloudy
3:20 PM 64.4 °F - 44.6 °F 49% 30.27 in 6.2 mi SSW 13.8 mph - N/A   Partly Cloudy
3:50 PM 62.6 °F - 42.8 °F 48% 30.24 in 6.2 mi SSW 13.8 mph - N/A   Partly Cloudy
4:20 PM 64.4 °F - 42.8 °F 45% 30.24 in 6.2 mi South 11.5 mph - N/A   Partly Cloudy
4:50 PM 62.6 °F - 41.0 °F 45% 30.21 in 6.2 mi SSW 15.0 mph - N/A   Partly Cloudy
5:20 PM 62.6 °F - 41.0 °F 45% 30.21 in 6.2 mi SSW 16.1 mph - N/A   Partly Cloudy
5:50 PM 62.6 °F - 42.8 °F 48% 30.21 in 6.2 mi South 12.7 mph - N/A   Partly Cloudy
6:50 PM 62.6 °F - 42.8 °F 48% 30.21 in 6.2 mi SSW 15.0 mph - N/A   Partly Cloudy
7:20 PM 60.8 °F - 42.8 °F 52% 30.21 in 6.2 mi SSW 15.0 mph - N/A   Partly Cloudy
7:50 PM 59.0 °F - 41.0 °F 51% 30.21 in 6.2 mi SSW 10.4 mph - N/A   Unknown
8:20 PM 57.2 °F - 41.0 °F 55% 30.21 in - SSW 9.2 mph - N/A   Clear